This is the latest recevied weather packets stored in our database for station/object SP4LIN-15. If no packets are shown the sender has not sent any weather packets the latest 10 day(s).
| Time | Temp. | Humidity | Pressure | Rain* | Wind** | Luminosity | Snow |
|---|---|---|---|---|---|---|---|
| 1778152139 | 8.89° C | 80% | 1005.9 hPa | 0 mm | - | - | - |
| 1778151239 | 8.89° C | 80% | 1005.7 hPa | 0 mm | - | - | - |
| 1778150339 | 8.89° C | 79% | 1005.6 hPa | 0 mm | - | - | - |
| 1778149439 | 9.44° C | 80% | 1005.4 hPa | 0 mm | - | - | - |
| 1778148539 | 8.89° C | 82% | 1005.2 hPa | 0 mm | - | - | - |
| 1778147639 | 8.33° C | 83% | 1005.2 hPa | 0 mm | - | - | - |
| 1778146739 | 7.78° C | 83% | 1005.1 hPa | 0 mm | - | - | - |
| 1778145839 | 8.33° C | 83% | 1005.1 hPa | 0 mm | - | - | - |
| 1778144939 | 7.78° C | 84% | 1004.8 hPa | 0 mm | - | - | - |
| 1778144039 | 7.78° C | 83% | 1004.5 hPa | 0 mm | - | - | - |
| 1778143139 | 8.33° C | 83% | 1004.2 hPa | 0 mm | - | - | - |
| 1778142239 | 8.33° C | 83% | 1004 hPa | 0 mm | - | - | - |
| 1778141340 | 7.78° C | 84% | 1003.9 hPa | 0 mm | - | - | - |
| 1778140440 | 7.78° C | 84% | 1003.9 hPa | 0 mm | - | - | - |
| 1778139540 | 7.78° C | 85% | 1003.7 hPa | 0 mm | - | - | - |
| 1778138640 | 7.78° C | 85% | 1003.6 hPa | 0 mm | - | - | - |
| 1778137740 | 7.78° C | 85% | 1003.5 hPa | 0 mm | - | - | - |
| 1778136840 | 7.78° C | 86% | 1003.3 hPa | 0 mm | - | - | - |
| 1778135940 | 7.78° C | 85% | 1003.1 hPa | 0 mm | - | - | - |
| 1778135040 | 7.78° C | 86% | 1002.8 hPa | 0 mm | - | - | - |
| 1778134140 | 7.78° C | 86% | 1002.7 hPa | 0 mm | - | - | - |
| 1778133240 | 7.78° C | 86% | 1002.6 hPa | 0 mm | - | - | - |
| 1778132340 | 7.22° C | 87% | 1002.6 hPa | 0 mm | - | - | - |
| 1778131440 | 7.22° C | 87% | 1002.3 hPa | 0 mm | - | - | - |
| 1778130540 | 7.22° C | 88% | 1002.3 hPa | 0 mm | - | - | - |
* Rain latest hour (hover to see other rain measurements)
** Current wind speed in m/s (hover to see current wind gust speed)